K7KLA Weather Reports


time (UTC)temp
C
wind
direction
speed
KPH
gust
KPH
rain 1hr
cm
rain 24hr
cm
rain mn
cm
humidity
%
barometer
mb
20260508024920 16 180 1.6 3.2 0.00 0.00 0.00 56 1009.9
20260508024420 16 180 1.6 4.8 0.00 0.00 0.00 55 1009.8
20260508023918 17 180 1.6 4.8 0.00 0.00 0.00 53 1009.8
20260508023416 17 180 1.6 4.8 0.00 0.00 0.00 52 1009.8
20260508022918 18 180 0.0 3.2 0.00 0.00 0.00 53 1009.8
20260508022415 20 180 0.0 3.2 0.00 0.00 0.00 46 1009.8
20260508021913 20 180 0.0 3.2 0.00 0.00 0.00 42 1009.8
20260508021417 21 180 1.6 4.8 0.00 0.00 0.00 49 1009.8
20260508020914 21 180 3.2 4.8 0.00 0.00 0.00 38 1009.8
20260508020413 21 180 3.2 6.4 0.00 0.00 0.00 35 1009.8
20260508015913 21 180 3.2 6.4 0.00 0.00 0.00 37 1009.8
20260508015411 21 180 3.2 4.8 0.00 0.00 0.00 41 1009.8
20260508014909 22 230 3.2 4.8 0.00 0.00 0.00 44 1009.8
20260508014409 22 228 3.2 4.8 0.00 0.00 0.00 42 1009.9
20260508013907 22 216 1.6 4.8 0.00 0.00 0.00 41 1009.9
20260508013408 22 221 3.2 4.8 0.00 0.00 0.00 38 1009.9
20260508012907 22 208 3.2 8.0 0.00 0.00 0.00 37 1009.9
20260508012402 23 210 3.2 8.0 0.00 0.00 0.00 39 1010.0
20260508011902 23 206 3.2 6.4 0.00 0.00 0.00 39 1010.0
20260508011401 24 211 3.2 9.7 0.00 0.00 0.00 39 1010.0
20260508010900 24 248 1.6 9.7 0.00 0.00 0.00 36 1010.0
20260508010400 24 191 3.2 9.7 0.00 0.00 0.00 36 1010.1
20260508005859 24 272 4.8 9.7 0.00 0.00 0.00 36 1010.1
20260508005358 23 251 4.8 11.3 0.00 0.00 0.00 35 1010.2
20260508004858 24 224 6.4 14.5 0.00 0.00 0.00 38 1010.2
20260508004612 24 238 6.4 14.5 0.00 0.00 0.00 36 1010.2
20260508003845 24 198 6.4 12.9 0.00 0.00 0.00 32 1010.1
20260508003345 25 235 6.4 12.9 0.00 0.00 0.00 34 1010.2
20260508002846 25 245 6.4 12.9 0.00 0.00 0.00 32 1010.1
20260508002345 25 244 4.8 12.9 0.00 0.00 0.00 30 1010.2
20260508001846 25 245 4.8 14.5 0.00 0.00 0.00 31 1010.2
20260508001610 25 287 4.8 14.5 0.00 0.00 0.00 29 1010.2
20260508000844 25 291 6.4 12.9 0.00 0.00 0.00 29 1010.3
20260508000343 25 286 6.4 14.5 0.00 0.00 0.00 30 1010.3
20260507235844 25 245 4.8 14.5 0.00 0.00 0.00 32 1010.3
20260507235344 25 288 4.8 9.7 0.00 0.00 0.00 27 1010.3
20260507235102 25 212 4.8 9.7 0.00 0.00 0.00 32 1010.4
20260507234345 25 273 6.4 12.9 0.00 0.00 0.00 31 1010.4
20260507233844 24 289 8.0 16.1 0.00 0.00 0.00 34 1010.4
20260507233342 24 213 8.0 16.1 0.00 0.00 0.00 31 1010.4
20260507233112 24 191 9.7 17.7 0.00 0.00 0.00 32 1010.5
20260507232342 25 203 9.7 17.7 0.00 0.00 0.00 29 1010.6
20260507231841 25 214 8.0 16.1 0.00 0.00 0.00 31 1010.6
20260507231341 25 247 6.4 14.5 0.00 0.00 0.00 31 1010.8
20260507230840 25 268 6.4 14.5 0.00 0.00 0.00 30 1010.8
20260507230334 25 216 8.0 19.3 0.00 0.00 0.00 27 1010.9
20260507225607 25 290 8.0 19.3 0.00 0.00 0.00 31 1011.1
20260507224831 25 264 11.3 22.5 0.00 0.00 0.00 32 1011.1
20260507224332 24 254 12.9 22.5 0.00 0.00 0.00 30 1011.2
20260507223829 25 169 9.7 19.3 0.00 0.00 0.00 31 1011.2
20260507223327 25 206 9.7 20.9 0.00 0.00 0.00 29 1011.3
20260507222829 24 265 9.7 20.9 0.00 0.00 0.00 33 1011.3
20260507222323 23 258 11.3 19.3 0.00 0.00 0.00 36 1011.3
20260507221823 23 212 11.3 22.5 0.00 0.00 0.00 33 1011.4
20260507221323 23 231 11.3 22.5 0.00 0.00 0.00 33 1011.4
20260507220821 24 212 11.3 22.5 0.00 0.00 0.00 31 1011.5
20260507220322 24 222 12.9 22.5 0.00 0.00 0.00 36 1011.5
20260507215538 24 266 12.9 19.3 0.00 0.00 0.00 35 1011.6
20260507214817 23 251 14.5 24.1 0.00 0.00 0.00 36 1011.8
20260507214315 23 180 16.1 24.1 0.00 0.00 0.00 35 1011.8
20260507213814 23 245 17.7 27.4 0.00 0.00 0.00 38 1011.8
20260507213535 23 227 14.5 27.4 0.00 0.00 0.00 38 1012.0
20260507212812 23 212 11.3 20.9 0.00 0.00 0.00 39 1012.0
20260507212312 23 180 12.9 24.1 0.00 0.00 0.00 38 1012.1
20260507211811 23 180 16.1 24.1 0.00 0.00 0.00 38 1012.1
20260507210811 23 180 16.1 27.4 0.00 0.00 0.00 37 1012.2
20260507210311 23 180 16.1 25.7 0.00 0.00 0.00 39 1012.2
20260507205808 23 180 16.1 25.7 0.00 0.00 0.00 38 1012.3
20260507205532 23 180 16.1 27.4 0.00 0.00 0.00 39 1012.3
20260507204808 23 180 16.1 27.4 0.00 0.00 0.00 40 1012.3
20260507204306 23 180 16.1 25.7 0.00 0.00 0.00 40 1012.3
20260507203806 23 180 16.1 25.7 0.00 0.00 0.00 41 1012.3
20260507203306 23 180 16.1 32.2 0.00 0.00 0.00 40 1012.4
20260507203027 23 180 19.3 32.2 0.00 0.00 0.00 42 1012.4
20260507202306 23 180 16.1 25.7 0.00 0.00 0.00 41 1012.4
20260507201805 23 180 16.1 24.1 0.00 0.00 0.00 43 1012.4
20260507201523 23 180 17.7 27.4 0.00 0.00 0.00 43 1012.5
20260507200801 22 180 17.7 27.4 0.00 0.00 0.00 44 1012.5
20260507200302 22 180 16.1 27.4 0.00 0.00 0.00 43 1012.5
20260507195801 22 180 17.7 27.4 0.00 0.00 0.00 44 1012.6
20260507195259 22 180 16.1 27.4 0.00 0.00 0.00 43 1012.6
20260507194800 22 180 14.5 24.1 0.00 0.00 0.00 45 1012.6
20260507194258 22 180 14.5 24.1 0.00 0.00 0.00 45 1012.6
20260507194020 22 180 12.9 24.1 0.00 0.00 0.00 48 1012.6
20260507193259 22 180 12.9 24.1 0.00 0.00 0.00 48 1012.6
20260507192756 22 180 14.5 24.1 0.00 0.00 0.00 49 1012.6
20260507192255 22 180 14.5 27.4 0.00 0.00 0.00 49 1012.6
20260507191756 21 180 16.1 27.4 0.00 0.00 0.00 52 1012.7
20260507191249 21 180 16.1 25.7 0.00 0.00 0.00 47 1012.7
20260507190749 21 180 17.7 27.4 0.00 0.00 0.00 47 1012.8
20260507190250 21 180 17.7 27.4 0.00 0.00 0.00 47 1012.9
20260507185746 21 180 17.7 27.4 0.00 0.00 0.00 47 1012.9
20260507185245 21 180 16.1 27.4 0.00 0.00 0.00 47 1012.9
20260507184746 21 180 14.5 24.1 0.00 0.00 0.00 51 1013.0
20260507184242 21 180 16.1 24.1 0.00 0.00 0.00 47 1013.0
20260507184004 21 180 16.1 24.1 0.00 0.00 0.00 49 1013.0
20260507183242 20 180 16.1 24.1 0.00 0.00 0.00 53 1013.1
20260507182740 20 180 16.1 24.1 0.00 0.00 0.00 53 1013.3
20260507182241 20 180 16.1 25.7 0.00 0.00 0.00 52 1013.3
20260507182006 20 180 17.7 25.7 0.00 0.00 0.00 50 1013.3
20260507181236 20 180 17.7 27.4 0.00 0.00 0.00 55 1013.4
20260507180735 20 180 16.1 27.4 0.00 0.00 0.00 57 1013.4
20260507180237 19 180 17.7 24.1 0.00 0.00 0.00 52 1013.5
20260507175958 19 180 19.3 29.0 0.00 0.00 0.00 52 1013.5
20260507175230 19 180 19.3 29.0 0.00 0.00 0.00 54 1013.5
20260507174730 18 180 20.9 29.0 0.00 0.00 0.00 54 1013.5
20260507174456 18 180 20.9 27.4 0.00 0.00 0.00 54 1013.5
20260507173731 18 180 20.9 30.6 0.00 0.00 0.00 55 1013.5
20260507173228 18 180 19.3 30.6 0.00 0.00 0.00 53 1013.6
20260507172727 18 180 20.9 27.4 0.00 0.00 0.00 55 1013.7
20260507172447 18 180 20.9 27.4 0.00 0.00 0.00 56 1013.8
20260507171726 18 180 20.9 30.6 0.00 0.00 0.00 56 1013.7
20260507171226 18 180 22.5 30.6 0.00 0.00 0.00 56 1013.7
20260507170726 17 180 22.5 32.2 0.00 0.00 0.00 57 1013.7
20260507170226 17 180 22.5 32.2 0.00 0.00 0.00 56 1013.8
20260507165726 17 180 22.5 37.0 0.00 0.00 0.00 55 1013.8
20260507165444 17 180 20.9 37.0 0.00 0.00 0.00 58 1013.8
20260507164725 17 180 20.9 32.2 0.00 0.00 0.00 61 1013.9
20260507164453 17 180 20.9 32.2 0.00 0.00 0.00 58 1014.0
20260507163726 17 180 20.9 30.6 0.00 0.00 0.00 59 1013.9
20260507163226 17 180 22.5 32.2 0.00 0.00 0.00 59 1013.9
20260507162725 17 180 22.5 32.2 0.00 0.00 0.00 60 1013.8
20260507162226 16 180 20.9 30.6 0.00 0.00 0.00 60 1013.8
20260507161950 16 180 20.9 32.2 0.00 0.00 0.00 61 1013.8
20260507161226 16 180 22.5 32.2 0.00 0.00 0.00 60 1013.9
20260507160723 16 180 20.9 29.0 0.00 0.00 0.00 60 1013.7
20260507160224 16 180 20.9 32.2 0.00 0.00 0.00 62 1013.8
20260507155724 16 180 19.3 32.2 0.00 0.00 0.00 62 1013.8
20260507155217 16 180 19.3 29.0 0.00 0.00 0.00 63 1013.9
20260507154718 16 180 19.3 27.4 0.00 0.00 0.00 63 1013.9
20260507154442 15 180 19.3 27.4 0.00 0.00 0.00 62 1014.0
20260507153713 15 180 17.7 30.6 0.00 0.00 0.00 64 1014.1
20260507153212 15 180 17.7 30.6 0.00 0.00 0.00 65 1014.0
20260507152714 15 180 19.3 30.6 0.00 0.00 0.00 64 1014.0
20260507152426 15 180 22.5 37.0 0.00 0.00 0.00 65 1014.0
20260507151709 15 180 19.3 37.0 0.00 0.00 0.00 65 1013.8
20260507151210 16 180 12.9 32.2 0.00 0.00 0.00 64 1013.7
20260507150702 16 180 14.5 24.1 0.00 0.00 0.00 68 1013.8
20260507150202 15 180 16.1 24.1 0.00 0.00 0.00 69 1013.8
20260507145928 15 180 14.5 22.5 0.00 0.00 0.00 67 1013.7
20260507145159 15 180 11.3 20.9 0.00 0.00 0.00 70 1013.7
20260507144919 15 180 9.7 20.9 0.00 0.00 0.00 70 1013.5
20260507144200 14 180 8.0 16.1 0.00 0.00 0.00 74 1013.5
20260507143655 14 180 8.0 16.1 0.00 0.00 0.00 74 1013.5
20260507143154 13 180 9.7 22.5 0.00 0.00 0.00 73 1013.6
20260507142657 13 180 12.9 22.5 0.00 0.00 0.00 73 1013.5
20260507142151 13 180 11.3 22.5 0.00 0.00 0.00 73 1013.4
20260507141149 13 180 3.2 9.7 0.00 0.00 0.00 77 1013.3
20260507140648 12 180 3.2 9.7 0.00 0.00 0.00 77 1013.0
20260507140146 12 180 3.2 9.7 0.00 0.00 0.00 77 1012.9
20260507135647 12 180 1.6 9.7 0.00 0.00 0.00 77 1013.0
20260507135145 12 180 1.6 6.4 0.00 0.00 0.00 77 1013.0
20260507134644 12 180 3.2 9.7 0.00 0.00 0.00 77 1012.8
20260507134405 12 180 4.8 12.9 0.00 0.00 0.00 77 1012.8
20260507133643 12 180 4.8 12.9 0.00 0.00 0.00 77 1012.8
20260507133142 12 180 4.8 12.9 0.00 0.00 0.00 76 1012.8
20260507132643 12 180 3.2 12.9 0.00 0.00 0.00 76 1012.9
20260507132142 12 180 8.0 20.9 0.00 0.00 0.00 76 1012.9
20260507131640 12 180 9.7 20.9 0.00 0.00 0.00 75 1012.8
20260507131141 12 180 8.0 14.5 0.00 0.00 0.00 75 1012.9
20260507130902 12 180 6.4 16.1 0.00 0.00 0.00 75 1012.8
20260507130138 12 180 6.4 16.1 0.00 0.00 0.00 76 1012.7
20260507125641 12 180 9.7 17.7 0.00 0.00 0.00 75 1012.7
20260507125137 12 180 8.0 17.7 0.00 0.00 0.00 74 1012.8
20260507124636 12 180 9.7 24.1 0.00 0.00 0.00 75 1012.7
20260507124137 12 180 12.9 24.1 0.00 0.00 0.00 74 1012.5
20260507123635 12 180 17.7 27.4 0.00 0.00 0.00 74 1012.6
20260507123357 12 180 19.3 29.0 0.00 0.00 0.00 74 1012.6
20260507122635 12 180 17.7 29.0 0.00 0.00 0.00 74 1012.6
20260507122134 12 180 17.7 27.4 0.00 0.00 0.00 73 1012.5
20260507121631 12 180 16.1 27.4 0.00 0.00 0.00 74 1012.5
20260507121352 13 180 17.7 27.4 0.00 0.00 0.00 73 1012.6
20260507120853 13 180 19.3 33.8 0.00 0.00 0.00 73 1012.6
20260507120130 13 180 19.3 33.8 0.00 0.00 0.00 72 1012.6
20260507115852 13 180 17.7 29.0 0.00 0.00 0.00 72 1012.6
20260507115350 13 180 17.7 29.0 0.00 0.00 0.00 72 1012.7
20260507114629 13 180 19.3 29.0 0.00 0.00 0.00 72 1012.8
20260507114129 13 180 17.7 30.6 0.00 0.00 0.00 71 1012.8
20260507113628 13 180 17.7 30.6 0.00 0.00 0.00 71 1012.8
20260507113128 13 180 16.1 24.1 0.00 0.00 0.00 71 1012.7
20260507112855 13 180 17.7 29.0 0.00 0.00 0.00 70 1012.7
20260507112120 13 180 16.1 29.0 0.00 0.00 0.00 70 1012.7
20260507111620 13 180 16.1 24.1 0.00 0.00 0.00 70 1012.7
20260507111122 13 180 17.7 25.7 0.00 0.00 0.00 70 1012.6
20260507110614 13 180 16.1 25.7 0.00 0.00 0.00 71 1012.7
20260507110115 12 180 12.9 22.5 0.00 0.00 0.00 72 1012.8
20260507105615 12 180 9.7 19.3 0.00 0.00 0.00 73 1012.8
20260507105107 12 180 8.0 19.3 0.00 0.00 0.00 73 1012.8
20260507104609 12 180 8.0 16.1 0.00 0.00 0.00 73 1012.8
20260507103609 12 180 9.7 19.3 0.00 0.00 0.00 73 1012.7
20260507103108 12 180 11.3 19.3 0.00 0.00 0.00 73 1012.7
20260507102610 13 180 12.9 20.9 0.00 0.00 0.00 72 1012.7
20260507102110 13 180 16.1 24.1 0.00 0.00 0.00 72 1012.8
20260507101609 13 180 16.1 24.1 0.00 0.00 0.00 72 1012.7
20260507101110 13 180 16.1 24.1 0.00 0.00 0.00 71 1012.6
20260507100609 13 180 17.7 32.2 0.00 0.00 0.00 71 1012.6
20260507100107 13 180 17.7 32.2 0.00 0.00 0.00 70 1012.6
20260507095609 13 180 17.7 24.1 0.00 0.00 0.00 70 1012.6
20260507095334 13 180 16.1 27.4 0.00 0.00 0.00 69 1012.7
20260507094605 13 180 16.1 27.4 0.00 0.00 0.00 69 1012.7
20260507094104 13 180 12.9 19.3 0.00 0.00 0.00 68 1012.7
20260507093605 13 180 12.9 19.3 0.00 0.00 0.00 68 1012.7
20260507093105 13 180 14.5 19.3 0.00 0.00 0.00 67 1012.8
20260507092606 13 180 14.5 24.1 0.00 0.00 0.00 67 1012.8
20260507092104 13 180 16.1 24.1 0.00 0.00 0.00 67 1012.8
20260507091826 13 180 12.9 19.3 0.00 0.00 0.00 67 1012.7
20260507091104 13 180 11.3 17.7 0.00 0.00 0.00 68 1012.7
20260507090604 13 180 9.7 17.7 0.00 0.00 0.00 68 1012.6
20260507085601 13 180 9.7 19.3 0.00 0.00 0.00 67 1012.6
20260507085056 13 180 9.7 19.3 0.00 0.00 0.00 66 1012.6
20260507084555 13 180 11.3 19.3 0.00 0.00 0.00 66 1012.6
20260507084058 13 180 12.9 20.9 0.00 0.00 0.00 65 1012.6
20260507083817 13 180 9.7 20.9 0.00 0.00 0.00 65 1012.6
20260507083052 13 180 8.0 17.7 0.00 0.00 0.00 65 1012.5
20260507082552 13 180 8.0 17.7 0.00 0.00 0.00 65 1012.4
20260507082309 13 180 8.0 17.7 0.00 0.00 0.00 66 1012.4
20260507081547 13 180 9.7 17.7 0.00 0.00 0.00 65 1012.4
20260507081047 13 180 8.0 17.7 0.00 0.00 0.00 65 1012.4
20260507080544 14 180 9.7 19.3 0.00 0.00 0.00 64 1012.5
20260507080043 14 180 8.0 19.3 0.00 0.00 0.00 63 1012.4
20260507075543 15 180 9.7 20.9 0.00 0.00 0.00 63 1012.4
20260507075043 15 180 12.9 22.5 0.00 0.00 0.00 61 1012.4
20260507074540 15 180 12.9 25.7 0.00 0.00 0.00 60 1012.3
20260507074040 15 180 16.1 25.7 0.00 0.00 0.00 59 1012.3
20260507073539 15 180 17.7 30.6 0.00 0.00 0.00 58 1012.3
20260507073041 16 180 19.3 30.6 0.00 0.00 0.00 57 1012.1
20260507072533 16 180 20.9 30.6 0.00 0.00 0.00 57 1011.9
20260507072034 16 180 20.9 30.6 0.00 0.00 0.00 57 1011.8
20260507071535 16 180 17.7 30.6 0.00 0.00 0.00 57 1011.9
20260507071029 16 180 17.7 27.4 0.00 0.00 0.00 58 1012.0
20260507070530 16 180 17.7 27.4 0.00 0.00 0.00 57 1012.0
20260507070032 16 180 17.7 29.0 0.00 0.00 0.00 57 1012.1
20260507065524 16 180 16.1 29.0 0.00 0.00 0.00 56 1012.0
20260507065241 16 180 14.5 24.1 0.00 0.00 0.00 56 1012.0
20260507064517 16 180 16.1 24.1 0.00 0.00 0.00 56 1012.0
20260507064017 16 180 16.1 25.7 0.00 0.00 0.00 55 1012.0
20260507063517 16 180 16.1 25.7 0.00 0.00 0.00 55 1011.9
20260507063017 16 180 17.7 29.0 0.00 0.00 0.00 54 1011.8
20260507062518 16 180 17.7 29.0 0.00 0.00 0.00 55 1011.7
20260507062012 16 180 19.3 30.6 0.00 0.00 0.00 55 1011.7
20260507061514 16 180 20.9 30.6 0.00 0.00 0.00 54 1011.8
20260507061014 16 180 20.9 29.0 0.00 0.00 0.00 54 1011.8
20260507060514 16 180 19.3 25.7 0.00 0.00 0.00 54 1011.8
20260507060013 17 180 17.7 25.7 0.00 0.00 0.00 54 1011.9
20260507055514 17 180 17.7 24.1 0.00 0.00 0.00 54 1011.8
20260507055014 16 180 16.1 27.4 0.00 0.00 0.00 54 1011.9
20260507054743 17 180 14.5 27.4 0.00 0.00 0.00 54 1011.9
20260507054013 17 180 14.5 24.1 0.00 0.00 0.00 54 1011.9
20260507053512 17 180 14.5 25.7 0.00 0.00 0.00 54 1011.9
20260507053014 17 180 16.1 25.7 0.00 0.00 0.00 54 1011.8
20260507052514 17 180 16.1 25.7 0.00 0.00 0.00 53 1011.9
20260507052233 17 180 17.7 25.7 0.00 0.00 0.00 53 1011.8
20260507051514 17 180 19.3 27.4 0.00 0.00 0.00 53 1011.8
20260507051014 17 180 19.3 27.4 0.00 0.00 0.00 52 1011.7
20260507050514 17 180 16.1 24.1 0.00 0.00 0.00 52 1011.7
20260507050014 17 180 14.5 24.1 0.00 0.00 0.00 52 1011.8
20260507045506 18 180 14.5 25.7 0.00 0.00 0.00 52 1011.8
20260507045006 18 180 14.5 25.7 0.00 0.00 0.00 52 1011.6
20260507044503 18 180 14.5 24.1 0.00 0.00 0.00 53 1011.6
20260507043956 18 180 16.1 24.1 0.00 0.00 0.00 53 1011.5
20260507043458 18 180 16.1 24.1 0.00 0.00 0.00 52 1011.5
20260507042957 18 180 14.5 22.5 0.00 0.00 0.00 53 1011.4
20260507042459 18 180 14.5 22.5 0.00 0.00 0.00 52 1011.5
20260507041954 18 180 12.9 20.9 0.00 0.00 0.00 54 1011.5
20260507041455 18 180 14.5 22.5 0.00 0.00 0.00 54 1011.5
20260507040951 18 180 16.1 22.5 0.00 0.00 0.00 53 1011.5
20260507040451 18 180 16.1 24.1 0.00 0.00 0.00 52 1011.3
20260507035951 19 180 17.7 24.1 0.00 0.00 0.00 51 1011.2
20260507035707 19 180 17.7 27.4 0.00 0.00 0.00 52 1011.1
20260507034946 19 180 20.9 30.6 0.00 0.00 0.00 51 1011.0
20260507034449 19 180 19.3 30.6 0.00 0.00 0.00 51 1011.0
20260507033944 19 180 19.3 29.0 0.00 0.00 0.00 50 1010.9
20260507033443 20 180 19.3 29.0 0.00 0.00 0.00 50 1010.8
20260507032944 20 180 16.1 27.4 0.00 0.00 0.00 50 1010.6
20260507032444 20 180 17.7 24.1 0.00 0.00 0.00 49 1010.4
20260507031943 20 180 17.7 24.1 0.00 0.00 0.00 50 1010.3
20260507031442 20 180 16.1 24.1 0.00 0.00 0.00 49 1010.5
20260507030942 20 180 16.1 25.7 0.00 0.00 0.00 51 1010.4
20260507030443 20 180 14.5 25.7 0.00 0.00 0.00 51 1010.2
20260507030207 20 180 12.9 22.5 0.00 0.00 0.00 52 1010.3